Location: Bothwell
(42.3833°S, 147.0000°E)
Time: 10:42:31
(UTC+11:00)

POLYITAN 1 - Pass Details

Date: 11 October 2022
Orbit: 584 x 602 km, 98.0° (Epoch: 02 December)

Event Time Altitude Azimuth Distance (km) Brightness Sun altitude
Exits shadow 02:06:50 11° 185° (S) 1,953 ? -38.4°
Drops below altitude 10° 02:06:54 10° 185° (S) 1,985 ? -38.4°
Sets 02:09:07 0° 188° (S) 2,895 ? -38.3°
